EST,Max TemperatureF,Mean TemperatureF,Min TemperatureF,Max Dew PointF,MeanDew PointF,Min DewpointF,Max Humidity, Mean Humidity, Min Humidity, Max Sea Level PressureIn, Mean Sea Level PressureIn, Min Sea Level PressureIn, Max VisibilityMiles, Mean VisibilityMiles, Min VisibilityMiles, Max Wind SpeedMPH, Mean Wind SpeedMPH, Max Gust SpeedMPH,PrecipitationIn, CloudCover, Events, WindDirDegrees
2012-12-1,49,39,29,36,32,26,96,79,61,30.45,30.40,30.35,10,5,2,7,3,8,0.00,0,,31
2012-12-2,61,47,32,47,36,30,96,77,57,30.38,30.26,30.12,10,4,0,14,2,21,T,5,Fog-Rain,171
2012-12-3,66,55,44,52,49,43,93,78,63,30.26,30.21,30.14,10,10,6,15,2,20,0.00,5,,229
2012-12-4,73,59,44,52,47,44,100,72,44,30.22,30.16,29.98,10,6,0,13,5,16,0.00,5,Fog,187
2012-12-5,64,50,35,47,31,20,67,53,38,30.34,30.18,29.98,10,10,10,22,12,29,0.00,1,,313
2012-12-6,43,33,23,25,21,18,81,61,41,30.39,30.30,30.21,10,10,10,18,2,24,0.00,0,,340
2012-12-7,42,38,33,38,35,25,92,81,69,30.19,30.09,29.97,10,7,4,7,2,14,0.13,6,Rain,5
2012-12-8,54,45,35,46,38,34,92,82,71,30.04,29.94,29.89,9,4,0,5,0,6,0.00,7,Fog,356
2012-12-9,49,47,44,46,45,43,100,93,86,30.19,30.11,29.96,6,2,0,10,2,13,0.41,8,Fog-Rain,20
2012-12-10,55,50,45,52,47,37,100,89,77,29.94,29.71,29.57,10,2,0,22,2,29,0.06,7,Fog-Rain,332
2012-12-11,48,40,31,37,30,24,76,65,53,30.24,30.02,29.75,10,10,9,20,8,25,0.03,4,Rain,299
2012-12-12,40,34,28,26,24,23,85,68,50,30.46,30.39,30.25,10,10,8,12,4,18,0.00,2,,314
2012-12-13,45,33,21,28,22,19,92,66,39,30.50,30.43,30.35,10,8,5,6,1,7,0.00,0,,252
2012-12-14,55,37,19,27,21,17,91,60,28,30.34,30.29,30.22,10,8,5,10,1,12,0.00,0,,213
2012-12-15,52,39,26,30,25,21,81,59,36,30.31,30.21,30.11,10,10,6,10,2,15,0.00,2,,126
2012-12-16,47,44,41,40,37,30,89,69,49,30.07,29.94,29.85,10,9,6,10,2,14,T,4,,133
2012-12-17,50,43,36,48,42,35,100,90,80,29.85,29.72,29.54,5,2,0,9,2,13,0.08,7,Fog-Rain,144
2012-12-18,54,45,36,47,39,27,100,75,50,29.82,29.62,29.53,10,5,0,24,6,31,T,6,Fog,241
2012-12-19,51,42,32,35,31,28,82,66,50,30.18,29.98,29.81,10,10,10,21,5,28,0.00,5,,312
2012-12-20,45,39,32,43,34,29,89,74,58,30.20,29.94,29.40,10,8,5,16,4,22,0.31,4,Rain,137
2012-12-21,46,41,35,43,27,20,92,72,52,29.57,29.42,29.34,10,9,1,31,18,45,0.26,7,Rain,269
2012-12-22,40,35,30,21,19,18,56,48,40,30.05,29.88,29.58,10,10,10,35,20,51,0.00,4,,290
2012-12-23,48,35,22,23,18,15,74,52,29,30.06,29.99,29.88,10,10,10,15,5,21,0.00,0,,224
2012-12-24,37,32,27,30,28,21,92,74,56,30.09,29.97,29.89,10,4,0,9,2,21,0.34,5,Fog-Snow,42
2012-12-25,43,37,31,34,31,30,100,81,62,30.25,30.09,29.91,10,3,0,12,2,16,0.00,5,Fog,353
2012-12-26,35,32,29,32,28,24,92,82,72,30.25,29.88,29.51,10,3,0,18,8,23,1.24,8,Fog-Rain-Snow,15
2012-12-27,37,35,33,31,26,22,89,73,56,30.03,29.73,29.50,10,9,2,28,15,43,0.04,8,Snow,304
2012-12-28,39,34,29,25,23,21,85,67,48,30.16,30.09,30.04,10,10,2,17,3,22,0.00,2,,311
2012-12-29,41,36,31,32,29,23,96,78,59,30.01,29.73,29.58,10,5,0,22,5,32,0.15,8,Fog-Snow,225
2012-12-30,37,31,24,23,19,16,63,55,47,30.33,30.17,29.86,10,10,10,31,16,45,0.00,5,,290
2012-12-31,41,31,20,25,19,14,77,63,48,30.32,30.16,29.99,10,10,10,14,5,20,0.00,2,,206